DW6201 Weather Reports


time (UTC)temp
C
wind
direction
speed
KPH
gust
KPH
rain 1hr
cm
rain 24hr
cm
rain mn
cm
humidity
%
barometer
mb
20260504110500 11 0 0.0 0.0 0.00 0.00 0.00 57 1000.0
20260504100501 10 0 0.0 0.0 0.00 0.00 0.00 57 1001.0
20260504082002 9 0 0.0 0.0 0.00 0.00 0.00 59 1002.4
20260504081501 9 0 0.0 0.0 0.00 0.00 0.00 59 1002.4
20260504081000 9 0 0.0 0.0 0.00 0.00 0.00 59 1002.4
20260504080500 9 0 0.0 0.0 0.00 0.00 0.00 60 1002.4
20260504050501 9 0 0.0 0.0 0.00 0.00 0.00 59 1005.4
20260504050000 10 0 0.0 0.0 0.00 0.00 0.00 59 1005.4
20260504045501 10 0 0.0 0.0 0.00 0.00 0.00 58 1005.4
20260504045000 10 0 0.0 0.0 0.00 0.00 0.00 58 1005.4
20260504044500 10 0 0.0 0.0 0.00 0.00 0.00 58 1005.8
20260504044000 10 0 0.0 0.0 0.00 0.00 0.00 58 1005.8
20260504043500 10 0 0.0 0.0 0.00 0.00 0.00 57 1005.8
20260504043000 10 0 0.0 0.0 0.00 0.00 0.00 57 1005.8
20260504042501 10 0 0.0 0.0 0.00 0.00 0.00 57 1005.8
20260504042000 11 0 0.0 0.0 0.00 0.00 0.00 56 1005.8
20260504041501 11 0 0.0 0.0 0.00 0.00 0.00 56 1005.8
20260504041001 11 0 0.0 0.0 0.00 0.00 0.00 55 1006.1
20260504040500 11 0 0.0 0.0 0.00 0.00 0.00 54 1006.1
20260504035501 11 0 0.0 0.0 0.00 0.00 0.00 53 1006.4
20260504035000 12 0 0.0 0.0 0.00 0.00 0.00 53 1006.4
20260504034500 12 0 0.0 0.0 0.00 0.00 0.00 52 1006.4
20260504034000 12 0 0.0 0.0 0.00 0.00 0.00 51 1006.4
20260504033501 12 0 0.0 0.0 0.00 0.00 0.00 51 1006.4
20260504033001 12 0 0.0 0.0 0.00 0.00 0.00 50 1006.4
20260504032500 12 0 0.0 0.0 0.00 0.00 0.00 50 1006.8
20260504032000 13 0 0.0 0.0 0.00 0.00 0.00 48 1006.8
20260504031500 13 0 0.0 0.0 0.00 0.00 0.00 48 1006.8
20260504031000 13 0 0.0 0.0 0.00 0.00 0.00 47 1006.8
20260504030501 13 0 0.0 0.0 0.00 0.00 0.00 47 1006.8
20260504030000 13 0 0.0 0.0 0.00 0.00 0.00 47 1006.8
20260504025500 13 0 0.0 0.0 0.00 0.00 0.00 46 1006.8
20260504025001 13 0 0.0 0.0 0.00 0.00 0.00 45 1006.8
20260504024500 14 0 0.0 0.0 0.00 0.00 0.00 45 1006.8
20260504024000 14 0 0.0 0.0 0.00 0.00 0.00 45 1006.8
20260504023500 14 0 0.0 0.0 0.00 0.00 0.00 44 1006.8
20260504023001 15 0 0.0 0.0 0.00 0.00 0.00 44 1007.1
20260504022500 15 0 0.0 0.0 0.00 0.00 0.00 43 1007.1
20260504022000 15 0 0.0 0.0 0.00 0.00 0.00 42 1007.1
20260504021500 15 0 0.0 0.0 0.00 0.00 0.00 41 1007.1
20260504021001 15 0 0.0 0.0 0.00 0.00 0.00 41 1007.1
20260504020500 15 0 0.0 0.0 0.00 0.00 0.00 40 1007.1
20260504020001 16 0 0.0 0.0 0.00 0.00 0.00 39 1007.1
20260504015500 16 0 0.0 0.0 0.00 0.00 0.00 38 1007.1
20260504015000 16 0 0.0 0.0 0.00 0.00 0.00 37 1007.1
20260504014500 16 0 0.0 0.0 0.00 0.00 0.00 36 1007.1
20260504014001 16 0 0.0 0.0 0.00 0.00 0.00 36 1007.1
20260504013501 17 0 0.0 0.0 0.00 0.00 0.00 35 1007.1
20260504013000 17 0 0.0 0.0 0.00 0.00 0.00 34 1007.1
20260504012501 17 0 0.0 0.0 0.00 0.00 0.00 34 1007.1
20260504012000 17 0 0.0 0.0 0.00 0.00 0.00 32 1007.1
20260504011500 18 0 0.0 0.0 0.00 0.00 0.00 32 1007.1
20260504011000 18 0 0.0 0.0 0.00 0.00 0.00 31 1007.1
20260504010501 18 0 0.0 0.0 0.00 0.00 0.00 31 1007.1
20260504005501 18 0 0.0 0.0 0.00 0.00 0.00 30 1007.1
20260504005000 18 0 0.0 0.0 0.00 0.00 0.00 29 1007.1
20260504004500 19 0 0.0 0.0 0.00 0.00 0.00 29 1007.1
20260504004000 19 0 0.0 0.0 0.00 0.00 0.00 29 1007.1
20260504003001 20 321 1.6 1.6 0.00 0.00 0.00 28 1007.1
20260504002501 20 321 1.6 1.6 0.00 0.00 0.00 28 1007.1
20260504002001 20 0 0.0 0.0 0.00 0.00 0.00 27 1007.1
20260504001500 20 0 0.0 0.0 0.00 0.00 0.00 27 1007.1
20260504001000 20 0 0.0 0.0 0.00 0.00 0.00 27 1007.5
20260504000500 20 0 0.0 0.0 0.00 0.00 0.00 28 1007.5
20260504000000 20 0 0.0 0.0 0.00 0.00 0.00 27 1007.5
20260503235500 20 0 0.0 0.0 0.00 0.00 0.00 27 1007.5
20260503235001 20 5 1.6 1.6 0.00 0.00 0.00 27 1007.5
20260503234500 20 0 0.0 0.0 0.00 0.00 0.00 27 1007.5
20260503234000 20 306 1.6 1.6 0.00 0.00 0.00 27 1007.5
20260503233500 20 299 4.8 4.8 0.00 0.00 0.00 26 1007.5
20260503233000 20 329 3.2 3.2 0.00 0.00 0.00 28 1007.5
20260503232501 20 321 1.6 1.6 0.00 0.00 0.00 27 1007.5
20260503232001 20 319 6.4 6.4 0.00 0.00 0.00 28 1007.5
20260503231501 20 326 6.4 6.4 0.00 0.00 0.00 27 1007.5
20260503231001 20 317 1.6 1.6 0.00 0.00 0.00 28 1007.5
20260503230500 20 326 1.6 1.6 0.00 0.00 0.00 28 1007.5
20260503230001 20 288 4.8 4.8 0.00 0.00 0.00 27 1007.5
20260503225500 20 334 4.8 4.8 0.00 0.00 0.00 27 1007.5
20260503225000 21 321 3.2 3.2 0.00 0.00 0.00 27 1007.5
20260503224500 21 290 1.6 1.6 0.00 0.00 0.00 28 1007.5
20260503224000 21 305 1.6 1.6 0.00 0.00 0.00 28 1007.5
20260503223501 20 336 6.4 6.4 0.00 0.00 0.00 29 1007.5
20260503223000 21 299 4.8 4.8 0.00 0.00 0.00 28 1007.5
20260503222501 21 317 12.9 12.9 0.00 0.00 0.00 28 1007.5
20260503222001 21 135 6.4 6.4 0.00 0.00 0.00 30 1007.5
20260503221500 21 327 1.6 1.6 0.00 0.00 0.00 28 1007.5
20260503221001 21 284 1.6 1.6 0.00 0.00 0.00 27 1007.8
20260503220500 21 317 3.2 3.2 0.00 0.00 0.00 27 1007.8
20260503220001 21 296 4.8 4.8 0.00 0.00 0.00 27 1007.8
20260503215500 21 325 1.6 1.6 0.00 0.00 0.00 29 1007.5
20260503215001 21 355 1.6 1.6 0.00 0.00 0.00 29 1007.5
20260503214501 21 0 0.0 0.0 0.00 0.00 0.00 28 1007.5
20260503214001 21 298 4.8 4.8 0.00 0.00 0.00 28 1007.8
20260503213500 21 335 8.0 8.0 0.00 0.00 0.00 26 1007.8
20260503213000 21 271 3.2 3.2 0.00 0.00 0.00 27 1007.8
20260503212501 21 336 1.6 1.6 0.00 0.00 0.00 28 1007.8
20260503212000 21 333 3.2 3.2 0.00 0.00 0.00 28 1007.8
20260503211500 22 272 4.8 4.8 0.00 0.00 0.00 28 1007.8
20260503211000 21 0 0.0 0.0 0.00 0.00 0.00 29 1007.8
20260503210501 21 0 0.0 0.0 0.00 0.00 0.00 30 1007.8
20260503210001 21 355 4.8 4.8 0.00 0.00 0.00 30 1008.1
20260503205501 21 333 6.4 6.4 0.00 0.00 0.00 29 1008.1
20260503205000 21 324 9.7 9.7 0.00 0.00 0.00 31 1008.1
20260503204500 21 304 6.4 6.4 0.00 0.00 0.00 32 1008.1
20260503204001 21 290 3.2 3.2 0.00 0.00 0.00 31 1008.1
20260503203500 21 341 3.2 3.2 0.00 0.00 0.00 33 1008.1
20260503203000 21 0 0.0 0.0 0.00 0.00 0.00 31 1008.5
20260503202501 21 310 6.4 6.4 0.00 0.00 0.00 31 1008.5
20260503202000 21 330 3.2 3.2 0.00 0.00 0.00 32 1008.5
20260503201500 21 269 6.4 6.4 0.00 0.00 0.00 31 1008.5
20260503201001 21 333 6.4 6.4 0.00 0.00 0.00 31 1008.5
20260503200501 21 310 6.4 6.4 0.00 0.00 0.00 30 1008.5
20260503200001 21 82 16.1 16.1 0.00 0.00 0.00 33 1008.5
20260503195500 21 308 3.2 3.2 0.00 0.00 0.00 31 1008.5
20260503195000 21 316 1.6 1.6 0.00 0.00 0.00 33 1008.5
20260503194501 21 320 12.9 12.9 0.00 0.00 0.00 32 1008.5
20260503194002 21 317 4.8 4.8 0.00 0.00 0.00 32 1008.8
20260503193500 21 285 11.3 11.3 0.00 0.00 0.00 33 1008.5
20260503193001 21 5 3.2 3.2 0.00 0.00 0.00 32 1008.8
20260503192500 21 286 6.4 6.4 0.00 0.00 0.00 33 1008.8
20260503192001 21 321 3.2 3.2 0.00 0.00 0.00 34 1008.8
20260503191501 21 323 1.6 1.6 0.00 0.00 0.00 33 1008.8
20260503191001 21 292 4.8 4.8 0.00 0.00 0.00 34 1008.8
20260503190501 21 319 8.0 8.0 0.00 0.00 0.00 33 1008.8
20260503190001 21 315 3.2 3.2 0.00 0.00 0.00 32 1008.8
20260503185501 21 294 4.8 4.8 0.00 0.00 0.00 34 1008.8
20260503185000 20 317 6.4 6.4 0.00 0.00 0.00 35 1008.8
20260503184501 20 313 1.6 1.6 0.00 0.00 0.00 32 1008.8
20260503184001 21 350 3.2 3.2 0.00 0.00 0.00 34 1008.8
20260503183500 21 327 6.4 6.4 0.00 0.00 0.00 34 1009.1
20260503183001 21 64 1.6 1.6 0.00 0.00 0.00 34 1008.8
20260503182501 21 332 3.2 3.2 0.00 0.00 0.00 36 1008.8
20260503182001 21 0 0.0 0.0 0.00 0.00 0.00 38 1008.8
20260503181501 20 85 9.7 9.7 0.00 0.00 0.00 37 1009.1
20260503181001 20 313 1.6 1.6 0.00 0.00 0.00 39 1009.1
20260503180501 20 325 4.8 4.8 0.00 0.00 0.00 38 1009.1
20260503180001 20 340 1.6 1.6 0.00 0.00 0.00 39 1009.1
20260503175500 20 325 4.8 4.8 0.00 0.00 0.00 37 1009.1
20260503175001 20 338 1.6 1.6 0.00 0.00 0.00 39 1009.1
20260503174501 20 306 4.8 4.8 0.00 0.00 0.00 39 1009.1
20260503174000 20 331 3.2 3.2 0.00 0.00 0.00 37 1009.1
20260503173500 20 355 3.2 3.2 0.00 0.00 0.00 37 1009.1
20260503173000 20 328 4.8 4.8 0.00 0.00 0.00 39 1009.1
20260503172500 20 312 3.2 3.2 0.00 0.00 0.00 36 1009.1
20260503172001 20 333 3.2 3.2 0.00 0.00 0.00 40 1009.1
20260503171500 19 20 8.0 8.0 0.00 0.00 0.00 40 1009.1
20260503171001 19 304 8.0 8.0 0.00 0.00 0.00 40 1009.5
20260503170501 19 326 6.4 6.4 0.00 0.00 0.00 40 1009.5
20260503151001 16 329 1.6 1.6 0.00 0.00 0.00 49 1008.8
20260503150501 16 321 8.0 8.0 0.00 0.00 0.00 52 1008.8
20260503131001 13 199 1.6 1.6 0.00 0.00 0.00 52 1008.1
20260503130500 13 186 1.6 1.6 0.00 0.00 0.00 52 1008.1